Home   Weather   Wetzlar   Past weeks
Flag for Germany

Past Weather in Wetzlar, Hesse, Germany — Yesterday and Last 2 Weeks

Now
54 °F

Passing clouds.


Feels Like: 53 °F
Forecast: 55 / 48 °F
Wind: 3 mph from Northeast

Location: Frankfurt-M-Flughafen Airport

Current Time: Oct 15, 2019 at 8:33:06 am

Latest Report: Oct 15, 2019 at 7:50 am


Visibility: N/A

Pressure: 29.74 "Hg

Humidity: 100%

Dew Point: 54 °F

Location of WetzlarLocation

Past Weather in Wetzlar — Graph

°F

Wetzlar Temperature Yesterday

Maximum temperature yesterday: 75 °F (at 3:20 pm)
Minimum temperature yesterday: 54 °F (at 5:50 am)
Average temperature yesterday: 63 °F

High & Low Weather Summary for the Past Weeks

 TemperatureHumidityPressure
High77 °F (Oct 13, 2:50 pm)100% (Oct 1, 2:20 am)30.12 "Hg (Oct 1, 2:20 am)
Low45 °F (Oct 3, 11:50 pm)45% (Oct 2, 5:20 pm)29.56 "Hg (Oct 1, 11:50 pm)
Average55 °F84%29.91 "Hg
* Reported Sep 30 7:20 am — Oct 15 7:20 am, Wetzlar. Weather by CustomWeather, © 2019

Note: Actual official high and low records may vary slightly from our data, if they occured in-between our weather recording intervals... More about our weather records

Advertising

Wetzlar Weather History for the Previous 24 Hours

Scroll right to see more
 ConditionsComfort  
Time TempWeatherWind HumidityBarometerVisibility
7:20 am
Tue, Oct 15
54 °FPassing clouds.3 mph100%29.74 "HgN/A
6:50 am54 °FClear.5 mph100%29.74 "Hg10 mi
6:20 am54 °FClear.6 mph94%29.74 "Hg10 mi
5:50 am54 °FClear.6 mph94%29.77 "Hg10 mi
5:20 am54 °FClear.3 mph94%29.77 "Hg10 mi
4:50 am54 °FPassing clouds.3 mph94%29.77 "HgN/A
4:20 am52 °FPassing clouds.3 mph94%29.77 "HgN/A
3:50 am52 °FClear.5 mph100%29.80 "Hg10 mi
3:20 am54 °FClear.1 mph94%29.80 "Hg10 mi
2:50 am54 °FClear.1 mph94%29.80 "Hg10 mi
2:20 am54 °FClear.1 mph100%29.80 "Hg10 mi
1:50 am54 °FClear.1 mph100%29.80 "Hg10 mi
1:20 am55 °FClear.1 mph94%29.80 "Hg10 mi
12:50 am55 °FClear.1 mph94%29.80 "Hg10 mi
12:20 am55 °FClear.2 mph100%29.80 "Hg10 mi
11:50 pm
Mon, Oct 14
57 °FClear.1 mph94%29.80 "Hg10 mi
11:20 pm57 °FPassing clouds.3 mph94%29.80 "HgN/A
10:50 pm59 °FClear.5 mph88%29.80 "Hg10 mi
10:20 pm59 °FPassing clouds.3 mph88%29.80 "HgN/A
9:50 pm59 °FClear.6 mph88%29.83 "Hg10 mi
9:20 pm61 °FPassing clouds.3 mph88%29.83 "HgN/A
8:50 pm61 °FClear.2 mph83%29.83 "Hg10 mi
8:20 pm61 °FClear.2 mph83%29.83 "Hg10 mi
7:50 pm61 °FClear.1 mph83%29.83 "Hg10 mi
7:20 pm63 °FClear.2 mph77%29.83 "Hg10 mi
6:50 pm64 °FClear.1 mph78%29.83 "Hg10 mi
6:20 pm66 °FSunny.1 mph73%29.83 "Hg10 mi
5:50 pm72 °FSunny.1 mph65%29.83 "Hg10 mi
5:20 pm75 °FPassing clouds.3 mph50%29.86 "HgN/A
4:50 pm75 °FSunny.2 mph50%29.86 "Hg10 mi
4:20 pm75 °FSunny.8 mph50%29.86 "Hg10 mi
3:50 pm75 °FPassing clouds.8 mph50%29.86 "HgN/A
3:20 pm75 °FPassing clouds.7 mph47%29.89 "HgN/A
2:50 pm73 °FPassing clouds.8 mph53%29.89 "HgN/A
2:20 pm73 °FPassing clouds.10 mph53%29.92 "HgN/A
1:50 pm73 °FSunny.9 mph57%29.92 "Hg10 mi
1:20 pm73 °FPassing clouds.8 mph53%29.92 "HgN/A
12:50 pm72 °FPassing clouds.8 mph57%29.95 "HgN/A
12:20 pm72 °FPassing clouds.8 mph57%29.95 "HgN/A
11:50 am70 °FSunny.10 mph60%29.98 "Hg10 mi
11:20 am68 °FSunny.7 mph64%29.98 "Hg10 mi
10:50 am68 °FSunny.7 mph64%29.98 "Hg10 mi
10:20 am64 °FSunny.7 mph73%29.98 "Hg10 mi
9:50 am63 °FPassing clouds.6 mph77%29.98 "HgN/A
9:20 am61 °FSunny.5 mph83%29.98 "Hg10 mi
8:50 am57 °FSunny.1 mph94%29.98 "Hg10 mi
8:20 am54 °FSunny.1 mph100%29.98 "Hg10 mi
Weather by CustomWeather, © 2019

See weather overview